Location: Cold Norton
(51.6667°N, 0.6667°E)
Time: 01:13:19
(UTC+00:00)

SPOT 1/Viking Rocket - Pass Details

Date: 18 November 2025
Orbit: 773 x 789 km, 98.2° (Epoch: 13 December)

Event Time Altitude Azimuth Distance (km) Brightness Sun altitude
Rises 18:19:27 0° 173° (S) 3,258 6.7 -20.8°
Reaches altitude 10° 18:21:46 10° 176° (S) 2,337 6.0 -21.1°
Maximum altitude 18:26:54 64° 258° (WSW) 872 3.9 -21.9°
Drops below altitude 10° 18:32:05 10° 340° (NNW) 2,362 6.2 -22.7°
Sets 18:34:27 0° 344° (NNW) 3,297 7.0 -23.1°
